Hourly Weather Roundup
Issued by NWS Central Illinois

Home | Current Version | Previous Version | Text Only | Print | Product List | Glossary On
Versions: 1 2 3 4 5 6 7 8 9 10 11 12 13 14 15 16 17 18 19 20 21 22 23 24 25 26 27 28 29 30 31 32 33 34 35 36 37 38 39 40 41 42 43 44 45 46 47 48 49 50
000
NZUS43 KILX 271710
HWRILX

AREA WEATHER ROUNDUP
NATIONAL WEATHER SERVICE, LINCOLN IL
1100 AM CST FRI FEB 27 2015


CITY           SKY/WX    TMP DP  RH WIND       PRES   REMARKS
BLOOMINGTON    SUNNY     10   1  67 CALM      30.64R
CHAMPAIGN      SUNNY      6  -2  69 W7        30.64R WCI  -6
DECATUR          N/A     10  -2  58 CALM      30.66R
FLORA          SUNNY      8  -1  64 NW5       30.68S WCI   0
GALESBURG      SUNNY      1  -6  75 W5        30.66S WCI  -9
JACKSONVILLE   SUNNY      7  -4  61 CALM      30.68R
LACON          SUNNY      6  -6  57 NW3       30.67R
LAWRENCEVILLE  SUNNY     16   3  56 NW3       30.67S
LITCHFIELD     SUNNY      4  -5  66 N6        30.66F WCI  -7
$$


CITY           SKY/WX    TMP DP  RH WIND       PRES   REMARKS
LINCOLN        SUNNY     10   0  61 CALM      30.69F
MACOMB         SUNNY      1  -5  74 CALM      30.70R
MATTOON        SUNNY      8  -1  66 NW6       30.64S WCI  -2
MT CARMEL AP   SUNNY     19   3  49 W5        30.67S WCI  13
OLNEY-NOBLE AP SUNNY     12   1  62 NW3       30.68S
PARIS          SUNNY      6  -1  71 W3        30.66S
PEORIA         SUNNY     10  -4  53 W5        30.67S WCI   2
PONTIAC        SUNNY      4  -3  71 W5        30.66R WCI  -5
RANTOUL        SUNNY     10   1  67 W3        30.64S
ROBINSON       SUNNY     14   1  56 CALM      30.68F
SPRINGFIELD    SUNNY      3  -4  72 SW6       30.68R WCI  -8
TAYLORVILLE    SUNNY      7  -4  61 SW6       30.67S WCI  -3
$$

...REGIONAL REPORTS...


CITY           SKY/WX    TMP DP  RH WIND       PRES   REMARKS
CHICAGO O`HARE SUNNY     12  -5  46 W14       30.60R WCI  -3
KANKAKEE       SUNNY      6  -1  73 W6        30.65R WCI  -5
MOLINE         SUNNY      8  -5  55 W3        30.66S
MOUNT VERNON   SUNNY     16   3  57 NE3       30.66F
PITTSFIELD     SUNNY      8  -3  61 NW6       30.68S WCI  -2
QUINCY         SUNNY      4  -5  66 NW3       30.66S
ROCKFORD       SUNNY      9  -6  50 NW3       30.63R
$$


CITY           SKY/WX    TMP DP  RH WIND       PRES   REMARKS
BURLINGTON     SUNNY      3  -5  69 VRB5      30.67S WCI  -6
CEDAR RAPIDS   SUNNY     -6 -10  83 W7        30.64R WCI -20
DES MOINES     MOSUNNY    7  -4  60 NW6       30.64S WCI  -3
KIRKSVILLE     SUNNY      9  -3  58 CALM      30.65R
OTTUMWA        SUNNY      6  -3  66 CALM      30.65F
ST LOUIS       MOSUNNY   11  -2  56 N8        30.67S WCI  -1
$$


CITY           SKY/WX    TMP DP  RH WIND       PRES   REMARKS
TERRE HAUTE    SUNNY     14  -3  47 N6        30.65S WCI   5
EVANSVILLE     MOSUNNY   20   9  62 VRB5      30.65F WCI  13
INDIANAPOLIS   MOSUNNY   15  -1  49 W8        30.60R WCI   4
LAFAYETTE      SUNNY     13  -2  51 NW8       30.63R WCI   2
MADISON        SUNNY     10  -8  44 W6        30.57R WCI   0
MILWAUKEE      SUNNY     14  -7  38 W6        30.57R WCI   5
$$




USA.gov is the U.S. government's official web portal to all federal, state and local government web resources and services.